Flag for Canada Weather past 2 weeks in Fredericton, New Brunswick, Canada

Now
23 °F

Broken clouds.


Feels Like: 18 °F
Forecast: 19 / 26 °F
Wind: 3 mph from Northwest

Location: Fredericton

Current Time: Mar 2, 2015 at 9:39:31 AM

Latest Report: Mar 2, 2015 at 9:00 AM


Visibility: 9 mi

Pressure: 29.80 "Hg

Humidity: 93%

Dew point: 21 °F

Location of FrederictonLocation

Historic Weather in Fredericton — Graph

°F

Fredericton temperature yesterday

Maximum temperature yesterday: 28 °F (at 4:00 PM)
Minimum temperature yesterday: -6 °F (at 8:00 AM)
Average temperature yesterday: 12 °F

Past Weeks' High & Low Weather Summary

 TemperatureHumidityPressure
High32 °F (Feb 22, 1:00 AM)100% (Feb 19, 9:00 PM)30.66 "Hg (Feb 19, 9:00 PM)
Low-13 °F (Feb 28, 5:00 AM)28% (Feb 28, 4:57 PM)29.19 "Hg (Feb 16, 12:00 AM)
Average12 °F71%29.94 "Hg
* Reported Feb 15 8:00 AM — Mar 2 8:00 AM, Fredericton, Weather by CustomWeather, © 2015

Note: Actual official high and low records may vary slightly from our data, if they occured in-between our weather recording intervals... More about our weather records

Advertising

Fredericton weather history for previous 24 hours

 ConditionsComfort  
Time TempWeatherWind HumidityBarometerVisibility
8:00 AM
Mon, Mar 2
21 °FLight snow. Scattered clouds.2 mph100%29.81 "Hg9 mi
7:00 AM21 °FLight snow. Overcast.3 mph100%29.84 "Hg9 mi
6:00 AM21 °FLight snow. Overcast.N/A100%29.87 "Hg3 mi
5:00 AMN/ALight snow.No windN/AN/A3 mi
4:00 AM23 °FLight snow. Ice fog.No wind100%29.95 "Hg1 mi
3:00 AM23 °FLight snow. Overcast.N/A100%30.00 "Hg1 mi
2:00 AMN/ALight snow.No windN/AN/A1 mi
1:00 AM23 °FLight snow. Overcast.N/A100%30.09 "Hg1 mi
12:00 AM23 °FLight snow. Overcast.3 mph93%30.13 "Hg1 mi
11:55 PM
Sun, Mar 1
23 °FLight snow. Overcast.2 mph93%30.13 "Hg2 mi
11:00 PMN/ALight snow.2 mphN/AN/A2 mi
10:00 PM23 °FMostly cloudy.N/A86%30.21 "Hg9 mi
9:00 PM25 °FMostly cloudy.6 mph74%30.25 "Hg9 mi
8:00 PMN/AMostly cloudy.8 mphN/AN/A9 mi
7:00 PMN/AN/AN/AN/A9 mi
6:00 PM27 °FOvercast.10 mph46%30.35 "Hg9 mi
5:00 PM27 °FPartly sunny.12 mph43%30.39 "Hg9 mi
4:00 PM28 °FChilly.14 mph37%30.41 "Hg9 mi
3:00 PMN/AScattered clouds.12 mphN/AN/A9 mi
2:00 PM27 °FSunny.13 mph39%30.49 "Hg9 mi
1:00 PM25 °FCold.9 mph46%30.54 "Hg9 mi
12:00 PM19 °FSunny.5 mph58%30.58 "Hg9 mi
11:00 AM16 °FSunny.6 mph57%30.60 "Hg9 mi
10:00 AM5 °FSunny.3 mph66%30.63 "Hg9 mi
9:00 AM1 °FSunny.No wind71%30.63 "Hg9 mi
Weather by CustomWeather, © 2015

See weather overviewHow to use our weather pages